owner,sensor,date,latitude,longitude,vertical_datum,sea_water_temperature,qcFlag
Anadarko,ioos:station:wmo:42399:1,2021-11-01T00:14:00Z,27.1117,-90.7640,100.6,28.0,11111222
Anadarko,ioos:station:wmo:42399:1,2021-11-01T00:34:00Z,27.1117,-90.7640,100.6,28.1,11111222
Anadarko,ioos:station:wmo:42399:1,2021-11-01T00:54:00Z,27.1117,-90.7640,100.6,28.5,11111222
Anadarko,ioos:station:wmo:42399:1,2021-11-01T01:14:00Z,27.1117,-90.7640,100.6,28.4,11111222
Anadarko,ioos:station:wmo:42399:1,2021-11-01T01:34:00Z,27.1117,-90.7640,100.6,28.8,11111222
Anadarko,ioos:station:wmo:42399:1,2021-11-01T01:54:00Z,27.1117,-90.7640,100.6,28.5,11111222
Anadarko,ioos:station:wmo:42399:1,2021-11-01T02:14:00Z,27.1117,-90.7640,100.6,28.6,11111222
Anadarko,ioos:station:wmo:42399:1,2021-11-01T02:33:00Z,27.1117,-90.7640,100.6,28.4,11111222
Anadarko,ioos:station:wmo:42399:1,2021-11-01T02:52:00Z,27.1117,-90.7640,100.6,27.1,11111222
Anadarko,ioos:station:wmo:42399:1,2021-11-01T03:12:00Z,27.1117,-90.7640,100.6,27.6,11111222
Anadarko,ioos:station:wmo:42399:1,2021-11-01T03:32:00Z,27.1117,-90.7640,100.6,27.7,11111222
Anadarko,ioos:station:wmo:42399:1,2021-11-01T03:52:00Z,27.1117,-90.7640,100.6,27.1,11111222
Anadarko,ioos:station:wmo:42399:1,2021-11-01T04:11:00Z,27.1117,-90.7640,100.6,27.2,11111222
Anadarko,ioos:station:wmo:42399:1,2021-11-01T04:31:00Z,27.1117,-90.7640,100.6,27.5,11111222
Anadarko,ioos:station:wmo:42399:1,2021-11-01T04:51:00Z,27.1117,-90.7640,100.6,27.3,11111222
Anadarko,ioos:station:wmo:42399:1,2021-11-01T05:11:00Z,27.1117,-90.7640,100.6,27.5,11111222
Anadarko,ioos:station:wmo:42399:1,2021-11-01T05:31:00Z,27.1117,-90.7640,100.6,27.7,11111222
Anadarko,ioos:station:wmo:42399:1,2021-11-01T05:51:00Z,27.1117,-90.7640,100.6,27.9,11111222
Anadarko,ioos:station:wmo:42399:1,2021-11-01T06:11:00Z,27.1117,-90.7640,100.6,27.7,11111222
Anadarko,ioos:station:wmo:42399:1,2021-11-01T06:31:00Z,27.1117,-90.7640,100.6,27.7,11111222
Anadarko,ioos:station:wmo:42399:1,2021-11-01T06:51:00Z,27.1117,-90.7640,100.6,28.2,11111222
Anadarko,ioos:station:wmo:42399:1,2021-11-01T07:11:00Z,27.1117,-90.7640,100.6,28.0,11111222
Anadarko,ioos:station:wmo:42399:1,2021-11-01T07:31:00Z,27.1117,-90.7640,100.6,27.8,11111222
Anadarko,ioos:station:wmo:42399:1,2021-11-01T07:51:00Z,27.1117,-90.7640,100.6,27.5,11111222
Anadarko,ioos:station:wmo:42399:1,2021-11-01T08:11:00Z,27.1117,-90.7640,100.6,27.9,11111222
Anadarko,ioos:station:wmo:42399:1,2021-11-01T08:31:00Z,27.1117,-90.7640,100.6,27.7,11111222
Anadarko,ioos:station:wmo:42399:1,2021-11-01T08:51:00Z,27.1117,-90.7640,100.6,27.7,11111222
Anadarko,ioos:station:wmo:42399:1,2021-11-01T09:11:00Z,27.1117,-90.7640,100.6,27.9,11111222
Anadarko,ioos:station:wmo:42399:1,2021-11-01T09:30:00Z,27.1117,-90.7640,100.6,27.7,11111222
Anadarko,ioos:station:wmo:42399:1,2021-11-01T09:50:00Z,27.1117,-90.7640,100.6,27.6,11111222
Anadarko,ioos:station:wmo:42399:1,2021-11-01T10:10:00Z,27.1117,-90.7640,100.6,27.8,11111222
Anadarko,ioos:station:wmo:42399:1,2021-11-01T10:29:00Z,27.1117,-90.7640,100.6,27.4,11111222
Anadarko,ioos:station:wmo:42399:1,2021-11-01T10:49:00Z,27.1117,-90.7640,100.6,27.3,11111222
Anadarko,ioos:station:wmo:42399:1,2021-11-01T11:08:00Z,27.1117,-90.7640,100.6,27.0,11111222
Anadarko,ioos:station:wmo:42399:1,2021-11-01T11:27:00Z,27.1117,-90.7640,100.6,27.2,11111222
Anadarko,ioos:station:wmo:42399:1,2021-11-01T11:47:00Z,27.1117,-90.7640,100.6,27.4,11111222
Anadarko,ioos:station:wmo:42399:1,2021-11-01T12:06:00Z,27.1117,-90.7640,100.6,27.5,11111222
Anadarko,ioos:station:wmo:42399:1,2021-11-01T12:26:00Z,27.1117,-90.7640,100.6,27.7,11111222
Anadarko,ioos:station:wmo:42399:1,2021-11-01T12:46:00Z,27.1117,-90.7640,100.6,27.4,11111222
Anadarko,ioos:station:wmo:42399:1,2021-11-01T13:06:00Z,27.1117,-90.7640,100.6,28.1,11111222
Anadarko,ioos:station:wmo:42399:1,2021-11-01T13:26:00Z,27.1117,-90.7640,100.6,27.2,11111222
Anadarko,ioos:station:wmo:42399:1,2021-11-01T13:46:00Z,27.1117,-90.7640,100.6,27.8,11111222
Anadarko,ioos:station:wmo:42399:1,2021-11-01T14:05:00Z,27.1117,-90.7640,100.6,27.9,11111222
Anadarko,ioos:station:wmo:42399:1,2021-11-01T14:24:00Z,27.1117,-90.7640,100.6,26.9,11111222
Anadarko,ioos:station:wmo:42399:1,2021-11-01T14:44:00Z,27.1117,-90.7640,100.6,27.1,11111222
Anadarko,ioos:station:wmo:42399:1,2021-11-01T15:04:00Z,27.1117,-90.7640,100.6,27.5,11111222
Anadarko,ioos:station:wmo:42399:1,2021-11-01T15:24:00Z,27.1117,-90.7640,100.6,26.6,11111222
Anadarko,ioos:station:wmo:42399:1,2021-11-01T15:44:00Z,27.1117,-90.7640,100.6,27.0,11111222
Anadarko,ioos:station:wmo:42399:1,2021-11-01T16:04:00Z,27.1117,-90.7640,100.6,25.1,11111222
Anadarko,ioos:station:wmo:42399:1,2021-11-01T16:24:00Z,27.1117,-90.7640,100.6,25.8,11111222
Anadarko,ioos:station:wmo:42399:1,2021-11-01T16:44:00Z,27.1117,-90.7640,100.6,26.1,11111222
Anadarko,ioos:station:wmo:42399:1,2021-11-01T17:04:00Z,27.1117,-90.7640,100.6,26.0,11111222
Anadarko,ioos:station:wmo:42399:1,2021-11-01T17:24:00Z,27.1117,-90.7640,100.6,26.6,11111222
Anadarko,ioos:station:wmo:42399:1,2021-11-01T17:44:00Z,27.1117,-90.7640,100.6,26.9,11111222
Anadarko,ioos:station:wmo:42399:1,2021-11-01T18:04:00Z,27.1117,-90.7640,100.6,26.7,11111222
Anadarko,ioos:station:wmo:42399:1,2021-11-01T18:24:00Z,27.1117,-90.7640,100.6,26.9,11111222
Anadarko,ioos:station:wmo:42399:1,2021-11-01T18:44:00Z,27.1117,-90.7640,100.6,27.1,11111222
Anadarko,ioos:station:wmo:42399:1,2021-11-01T19:04:00Z,27.1117,-90.7640,100.6,27.1,11111222
Anadarko,ioos:station:wmo:42399:1,2021-11-01T19:24:00Z,27.1117,-90.7640,100.6,27.1,11111222
Anadarko,ioos:station:wmo:42399:1,2021-11-01T19:44:00Z,27.1117,-90.7640,100.6,27.5,11111222
Anadarko,ioos:station:wmo:42399:1,2021-11-01T20:04:00Z,27.1117,-90.7640,100.6,27.4,11111222
Anadarko,ioos:station:wmo:42399:1,2021-11-01T20:24:00Z,27.1117,-90.7640,100.6,26.9,11111222
Anadarko,ioos:station:wmo:42399:1,2021-11-01T20:44:00Z,27.1117,-90.7640,100.6,27.1,11111222
Anadarko,ioos:station:wmo:42399:1,2021-11-01T21:04:00Z,27.1117,-90.7640,100.6,27.2,11111222
Anadarko,ioos:station:wmo:42399:1,2021-11-01T21:24:00Z,27.1117,-90.7640,100.6,26.8,11111222
Anadarko,ioos:station:wmo:42399:1,2021-11-01T21:44:00Z,27.1117,-90.7640,100.6,26.7,11111222
Anadarko,ioos:station:wmo:42399:1,2021-11-01T22:03:00Z,27.1117,-90.7640,100.6,26.6,11111222
Anadarko,ioos:station:wmo:42399:1,2021-11-01T22:22:00Z,27.1117,-90.7640,100.6,27.3,11111222
Anadarko,ioos:station:wmo:42399:1,2021-11-01T22:42:00Z,27.1117,-90.7640,100.6,27.2,11111222
Anadarko,ioos:station:wmo:42399:1,2021-11-01T23:02:00Z,27.1117,-90.7640,100.6,27.5,11111222
Anadarko,ioos:station:wmo:42399:1,2021-11-01T23:22:00Z,27.1117,-90.7640,100.6,27.4,11111222
Anadarko,ioos:station:wmo:42399:1,2021-11-01T23:42:00Z,27.1117,-90.7640,100.6,27.5,11111222
Anadarko,ioos:station:wmo:42399:1,2021-11-02T00:02:00Z,27.1117,-90.7640,100.6,27.4,11111222
Anadarko,ioos:station:wmo:42399:1,2021-11-02T00:21:00Z,27.1117,-90.7640,100.6,26.4,11111222
Anadarko,ioos:station:wmo:42399:1,2021-11-02T00:40:00Z,27.1117,-90.7640,100.6,27.4,11111222
Anadarko,ioos:station:wmo:42399:1,2021-11-02T01:00:00Z,27.1117,-90.7640,100.6,27.5,11111222
Anadarko,ioos:station:wmo:42399:1,2021-11-02T01:20:00Z,27.1117,-90.7640,100.6,27.2,11111222
Anadarko,ioos:station:wmo:42399:1,2021-11-02T01:40:00Z,27.1117,-90.7640,100.6,26.5,11111222
Anadarko,ioos:station:wmo:42399:1,2021-11-02T02:00:00Z,27.1117,-90.7640,100.6,25.8,11111222
Anadarko,ioos:station:wmo:42399:1,2021-11-02T02:19:00Z,27.1117,-90.7640,100.6,26.2,11111222
Anadarko,ioos:station:wmo:42399:1,2021-11-02T02:39:00Z,27.1117,-90.7640,100.6,25.5,11111222
Anadarko,ioos:station:wmo:42399:1,2021-11-02T02:59:00Z,27.1117,-90.7640,100.6,25.7,11111222
Anadarko,ioos:station:wmo:42399:1,2021-11-02T03:18:00Z,27.1117,-90.7640,100.6,25.7,11111222
Anadarko,ioos:station:wmo:42399:1,2021-11-02T03:38:00Z,27.1117,-90.7640,100.6,25.9,11111222
Anadarko,ioos:station:wmo:42399:1,2021-11-02T03:58:00Z,27.1117,-90.7640,100.6,26.4,11111222
Anadarko,ioos:station:wmo:42399:1,2021-11-02T04:18:00Z,27.1117,-90.7640,100.6,26.2,11111222
Anadarko,ioos:station:wmo:42399:1,2021-11-02T04:38:00Z,27.1117,-90.7640,100.6,26.1,11111222
Anadarko,ioos:station:wmo:42399:1,2021-11-02T04:58:00Z,27.1117,-90.7640,100.6,26.0,11111222
Anadarko,ioos:station:wmo:42399:1,2021-11-02T05:18:00Z,27.1117,-90.7640,100.6,25.8,11111222
Anadarko,ioos:station:wmo:42399:1,2021-11-02T05:38:00Z,27.1117,-90.7640,100.6,25.5,11111222
Anadarko,ioos:station:wmo:42399:1,2021-11-02T05:58:00Z,27.1117,-90.7640,100.6,26.1,11111222
Anadarko,ioos:station:wmo:42399:1,2021-11-02T06:17:00Z,27.1117,-90.7640,100.6,26.2,11111222
Anadarko,ioos:station:wmo:42399:1,2021-11-02T06:37:00Z,27.1117,-90.7640,100.6,26.6,11111222
Anadarko,ioos:station:wmo:42399:1,2021-11-02T06:57:00Z,27.1117,-90.7640,100.6,26.7,11111222
Anadarko,ioos:station:wmo:42399:1,2021-11-02T07:16:00Z,27.1117,-90.7640,100.6,26.5,11111222
Anadarko,ioos:station:wmo:42399:1,2021-11-02T07:36:00Z,27.1117,-90.7640,100.6,26.8,11111222
Anadarko,ioos:station:wmo:42399:1,2021-11-02T07:56:00Z,27.1117,-90.7640,100.6,26.7,11111222
Anadarko,ioos:station:wmo:42399:1,2021-11-02T08:16:00Z,27.1117,-90.7640,100.6,26.9,11111222
Anadarko,ioos:station:wmo:42399:1,2021-11-02T08:36:00Z,27.1117,-90.7640,100.6,26.9,11111222
Anadarko,ioos:station:wmo:42399:1,2021-11-02T08:55:00Z,27.1117,-90.7640,100.6,26.7,11111222
Anadarko,ioos:station:wmo:42399:1,2021-11-02T09:15:00Z,27.1117,-90.7640,100.6,26.6,11111222
Anadarko,ioos:station:wmo:42399:1,2021-11-02T09:35:00Z,27.1117,-90.7640,100.6,26.6,11111222
Anadarko,ioos:station:wmo:42399:1,2021-11-02T09:55:00Z,27.1117,-90.7640,100.6,26.4,11111222
Anadarko,ioos:station:wmo:42399:1,2021-11-02T10:15:00Z,27.1117,-90.7640,100.6,26.5,11111222
Anadarko,ioos:station:wmo:42399:1,2021-11-02T10:35:00Z,27.1117,-90.7640,100.6,26.6,11111222
Anadarko,ioos:station:wmo:42399:1,2021-11-02T10:55:00Z,27.1117,-90.7640,100.6,26.4,11111222
Anadarko,ioos:station:wmo:42399:1,2021-11-02T11:15:00Z,27.1117,-90.7640,100.6,26.5,11111222
Anadarko,ioos:station:wmo:42399:1,2021-11-02T11:35:00Z,27.1117,-90.7640,100.6,26.3,11111222
Anadarko,ioos:station:wmo:42399:1,2021-11-02T11:55:00Z,27.1117,-90.7640,100.6,24.8,11111222
Anadarko,ioos:station:wmo:42399:1,2021-11-02T12:15:00Z,27.1117,-90.7640,100.6,25.5,11111222
Anadarko,ioos:station:wmo:42399:1,2021-11-02T12:34:00Z,27.1117,-90.7640,100.6,25.6,11111222
Anadarko,ioos:station:wmo:42399:1,2021-11-02T12:54:00Z,27.1117,-90.7640,100.6,26.2,11111222
Anadarko,ioos:station:wmo:42399:1,2021-11-02T13:14:00Z,27.1117,-90.7640,100.6,26.3,11111222
Anadarko,ioos:station:wmo:42399:1,2021-11-02T13:34:00Z,27.1117,-90.7640,100.6,26.1,11111222
Anadarko,ioos:station:wmo:42399:1,2021-11-02T13:54:00Z,27.1117,-90.7640,100.6,26.2,11111222
Anadarko,ioos:station:wmo:42399:1,2021-11-02T14:14:00Z,27.1117,-90.7640,100.6,26.2,11111222
Anadarko,ioos:station:wmo:42399:1,2021-11-02T14:34:00Z,27.1117,-90.7640,100.6,26.0,11111222
Anadarko,ioos:station:wmo:42399:1,2021-11-02T14:54:00Z,27.1117,-90.7640,100.6,26.1,11111222
Anadarko,ioos:station:wmo:42399:1,2021-11-02T15:14:00Z,27.1117,-90.7640,100.6,26.2,11111222
Anadarko,ioos:station:wmo:42399:1,2021-11-02T15:34:00Z,27.1117,-90.7640,100.6,26.3,11111222
Anadarko,ioos:station:wmo:42399:1,2021-11-02T15:54:00Z,27.1117,-90.7640,100.6,26.1,11111222
Anadarko,ioos:station:wmo:42399:1,2021-11-02T16:13:00Z,27.1117,-90.7640,100.6,26.3,11111222
Anadarko,ioos:station:wmo:42399:1,2021-11-02T16:33:00Z,27.1117,-90.7640,100.6,26.3,11111222
Anadarko,ioos:station:wmo:42399:1,2021-11-02T16:52:00Z,27.1117,-90.7640,100.6,26.2,11111222
Anadarko,ioos:station:wmo:42399:1,2021-11-02T17:12:00Z,27.1117,-90.7640,100.6,26.4,11111222
Anadarko,ioos:station:wmo:42399:1,2021-11-02T17:32:00Z,27.1117,-90.7640,100.6,26.6,11111222
Anadarko,ioos:station:wmo:42399:1,2021-11-02T17:52:00Z,27.1117,-90.7640,100.6,26.6,11111222
Anadarko,ioos:station:wmo:42399:1,2021-11-02T18:12:00Z,27.1117,-90.7640,100.6,26.9,11111222
Anadarko,ioos:station:wmo:42399:1,2021-11-02T18:32:00Z,27.1117,-90.7640,100.6,26.8,11111222
Anadarko,ioos:station:wmo:42399:1,2021-11-02T18:52:00Z,27.1117,-90.7640,100.6,26.6,11111222
Anadarko,ioos:station:wmo:42399:1,2021-11-02T19:11:00Z,27.1117,-90.7640,100.6,26.6,11111222
Anadarko,ioos:station:wmo:42399:1,2021-11-02T19:31:00Z,27.1117,-90.7640,100.6,26.8,11111222
Anadarko,ioos:station:wmo:42399:1,2021-11-02T19:50:00Z,27.1117,-90.7640,100.6,26.7,11111222
Anadarko,ioos:station:wmo:42399:1,2021-11-02T20:10:00Z,27.1117,-90.7640,100.6,26.3,11111222
Anadarko,ioos:station:wmo:42399:1,2021-11-02T20:30:00Z,27.1117,-90.7640,100.6,26.3,11111222
Anadarko,ioos:station:wmo:42399:1,2021-11-02T20:50:00Z,27.1117,-90.7640,100.6,25.9,11111222
Anadarko,ioos:station:wmo:42399:1,2021-11-02T21:10:00Z,27.1117,-90.7640,100.6,26.0,11111222
Anadarko,ioos:station:wmo:42399:1,2021-11-02T21:30:00Z,27.1117,-90.7640,100.6,26.2,11111222
Anadarko,ioos:station:wmo:42399:1,2021-11-02T21:50:00Z,27.1117,-90.7640,100.6,26.2,11111222
Anadarko,ioos:station:wmo:42399:1,2021-11-02T22:10:00Z,27.1117,-90.7640,100.6,26.4,11111222
Anadarko,ioos:station:wmo:42399:1,2021-11-02T22:30:00Z,27.1117,-90.7640,100.6,26.1,11111222
Anadarko,ioos:station:wmo:42399:1,2021-11-02T22:50:00Z,27.1117,-90.7640,100.6,25.9,11111222
Anadarko,ioos:station:wmo:42399:1,2021-11-02T23:10:00Z,27.1117,-90.7640,100.6,26.0,11111222
Anadarko,ioos:station:wmo:42399:1,2021-11-02T23:29:00Z,27.1117,-90.7640,100.6,26.1,11111222
Anadarko,ioos:station:wmo:42399:1,2021-11-02T23:49:00Z,27.1117,-90.7640,100.6,26.1,11111222
Anadarko,ioos:station:wmo:42399:1,2021-11-03T00:09:00Z,27.1117,-90.7640,100.6,26.0,11111222
Anadarko,ioos:station:wmo:42399:1,2021-11-03T00:29:00Z,27.1117,-90.7640,100.6,26.1,11111222
Anadarko,ioos:station:wmo:42399:1,2021-11-03T00:49:00Z,27.1117,-90.7640,100.6,26.1,11111222
Anadarko,ioos:station:wmo:42399:1,2021-11-03T01:09:00Z,27.1117,-90.7640,100.6,26.2,11111222
Anadarko,ioos:station:wmo:42399:1,2021-11-03T01:29:00Z,27.1117,-90.7640,100.6,26.6,11111222
Anadarko,ioos:station:wmo:42399:1,2021-11-03T01:49:00Z,27.1117,-90.7640,100.6,26.8,11111222
Anadarko,ioos:station:wmo:42399:1,2021-11-03T02:09:00Z,27.1117,-90.7640,100.6,26.6,11111222
Anadarko,ioos:station:wmo:42399:1,2021-11-03T02:29:00Z,27.1117,-90.7640,100.6,26.2,11111222
Anadarko,ioos:station:wmo:42399:1,2021-11-03T02:49:00Z,27.1117,-90.7640,100.6,26.3,11111222
Anadarko,ioos:station:wmo:42399:1,2021-11-03T03:08:00Z,27.1117,-90.7640,100.6,26.1,11111222
Anadarko,ioos:station:wmo:42399:1,2021-11-03T03:28:00Z,27.1117,-90.7640,100.6,26.1,11111222
Anadarko,ioos:station:wmo:42399:1,2021-11-03T03:48:00Z,27.1117,-90.7640,100.6,26.0,11111222
Anadarko,ioos:station:wmo:42399:1,2021-11-03T04:08:00Z,27.1117,-90.7640,100.6,25.9,11111222
Anadarko,ioos:station:wmo:42399:1,2021-11-03T04:28:00Z,27.1117,-90.7640,100.6,25.6,11111222
Anadarko,ioos:station:wmo:42399:1,2021-11-03T04:48:00Z,27.1117,-90.7640,100.6,25.8,11111222
Anadarko,ioos:station:wmo:42399:1,2021-11-03T05:08:00Z,27.1117,-90.7640,100.6,25.8,11111222
Anadarko,ioos:station:wmo:42399:1,2021-11-03T05:28:00Z,27.1117,-90.7640,100.6,25.5,11111222
Anadarko,ioos:station:wmo:42399:1,2021-11-03T05:48:00Z,27.1117,-90.7640,100.6,25.4,11111222
Anadarko,ioos:station:wmo:42399:1,2021-11-03T06:08:00Z,27.1117,-90.7640,100.6,25.6,11111222
Anadarko,ioos:station:wmo:42399:1,2021-11-03T06:28:00Z,27.1117,-90.7640,100.6,25.8,11111222
Anadarko,ioos:station:wmo:42399:1,2021-11-03T06:48:00Z,27.1117,-90.7640,100.6,25.8,11111222
Anadarko,ioos:station:wmo:42399:1,2021-11-03T07:08:00Z,27.1117,-90.7640,100.6,26.0,11111222
Anadarko,ioos:station:wmo:42399:1,2021-11-03T07:28:00Z,27.1117,-90.7640,100.6,25.7,11111222
Anadarko,ioos:station:wmo:42399:1,2021-11-03T07:48:00Z,27.1117,-90.7640,100.6,25.9,11111222
Anadarko,ioos:station:wmo:42399:1,2021-11-03T08:08:00Z,27.1117,-90.7640,100.6,25.5,11111222
Anadarko,ioos:station:wmo:42399:1,2021-11-03T08:28:00Z,27.1117,-90.7640,100.6,25.9,11111222
Anadarko,ioos:station:wmo:42399:1,2021-11-03T08:48:00Z,27.1117,-90.7640,100.6,25.9,11111222
Anadarko,ioos:station:wmo:42399:1,2021-11-03T09:09:00Z,27.1117,-90.7640,100.6,25.6,11111222
Anadarko,ioos:station:wmo:42399:1,2021-11-03T09:28:00Z,27.1117,-90.7640,100.6,25.7,11111222
Anadarko,ioos:station:wmo:42399:1,2021-11-03T09:48:00Z,27.1117,-90.7640,100.6,25.7,11111222
Anadarko,ioos:station:wmo:42399:1,2021-11-03T10:07:00Z,27.1117,-90.7640,100.6,25.7,11111222
Anadarko,ioos:station:wmo:42399:1,2021-11-03T10:26:00Z,27.1117,-90.7640,100.6,25.8,11111222
Anadarko,ioos:station:wmo:42399:1,2021-11-03T10:46:00Z,27.1117,-90.7640,100.6,25.6,11111222
Anadarko,ioos:station:wmo:42399:1,2021-11-03T11:06:00Z,27.1117,-90.7640,100.6,25.8,11111222
Anadarko,ioos:station:wmo:42399:1,2021-11-03T11:25:00Z,27.1117,-90.7640,100.6,25.6,11111222
Anadarko,ioos:station:wmo:42399:1,2021-11-03T11:45:00Z,27.1117,-90.7640,100.6,25.7,11111222
Anadarko,ioos:station:wmo:42399:1,2021-11-03T12:05:00Z,27.1117,-90.7640,100.6,25.3,11111222
Anadarko,ioos:station:wmo:42399:1,2021-11-03T12:25:00Z,27.1117,-90.7640,100.6,25.4,11111222
Anadarko,ioos:station:wmo:42399:1,2021-11-03T12:45:00Z,27.1117,-90.7640,100.6,25.5,11111222
Anadarko,ioos:station:wmo:42399:1,2021-11-03T13:05:00Z,27.1117,-90.7640,100.6,25.2,11111222
Anadarko,ioos:station:wmo:42399:1,2021-11-03T13:25:00Z,27.1117,-90.7640,100.6,25.3,11111222
Anadarko,ioos:station:wmo:42399:1,2021-11-03T13:45:00Z,27.1117,-90.7640,100.6,25.6,11111222
Anadarko,ioos:station:wmo:42399:1,2021-11-03T14:05:00Z,27.1117,-90.7640,100.6,25.4,11111222
Anadarko,ioos:station:wmo:42399:1,2021-11-03T14:25:00Z,27.1117,-90.7640,100.6,25.3,11111222
Anadarko,ioos:station:wmo:42399:1,2021-11-03T14:45:00Z,27.1117,-90.7640,100.6,25.5,11111222
Anadarko,ioos:station:wmo:42399:1,2021-11-03T15:04:00Z,27.1117,-90.7640,100.6,25.4,11111222
Anadarko,ioos:station:wmo:42399:1,2021-11-03T15:24:00Z,27.1117,-90.7640,100.6,25.4,11111222
Anadarko,ioos:station:wmo:42399:1,2021-11-03T15:44:00Z,27.1117,-90.7640,100.6,25.3,11111222
Anadarko,ioos:station:wmo:42399:1,2021-11-03T16:03:00Z,27.1117,-90.7640,100.6,25.3,11111222
Anadarko,ioos:station:wmo:42399:1,2021-11-03T16:22:00Z,27.1117,-90.7640,100.6,25.4,11111222
Anadarko,ioos:station:wmo:42399:1,2021-11-03T16:42:00Z,27.1117,-90.7640,100.6,25.2,11111222
Anadarko,ioos:station:wmo:42399:1,2021-11-03T17:02:00Z,27.1117,-90.7640,100.6,24.9,11111222
Anadarko,ioos:station:wmo:42399:1,2021-11-03T17:22:00Z,27.1117,-90.7640,100.6,24.8,11111222
Anadarko,ioos:station:wmo:42399:1,2021-11-03T17:42:00Z,27.1117,-90.7640,100.6,24.8,11111222
Anadarko,ioos:station:wmo:42399:1,2021-11-03T18:01:00Z,27.1117,-90.7640,100.6,24.6,11111222
Anadarko,ioos:station:wmo:42399:1,2021-11-03T18:20:00Z,27.1117,-90.7640,100.6,24.6,11111222
Anadarko,ioos:station:wmo:42399:1,2021-11-03T18:40:00Z,27.1117,-90.7640,100.6,24.5,11111222
Anadarko,ioos:station:wmo:42399:1,2021-11-03T19:00:00Z,27.1117,-90.7640,100.6,24.4,11111222
Anadarko,ioos:station:wmo:42399:1,2021-11-03T19:20:00Z,27.1117,-90.7640,100.6,24.6,11111222
Anadarko,ioos:station:wmo:42399:1,2021-11-03T19:39:00Z,27.1117,-90.7640,100.6,24.5,11111222
Anadarko,ioos:station:wmo:42399:1,2021-11-03T19:59:00Z,27.1117,-90.7640,100.6,24.4,11111222
Anadarko,ioos:station:wmo:42399:1,2021-11-03T20:19:00Z,27.1117,-90.7640,100.6,24.5,11111222
Anadarko,ioos:station:wmo:42399:1,2021-11-03T20:39:00Z,27.1117,-90.7640,100.6,24.6,11111222
Anadarko,ioos:station:wmo:42399:1,2021-11-03T20:59:00Z,27.1117,-90.7640,100.6,24.8,11111222
Anadarko,ioos:station:wmo:42399:1,2021-11-03T21:19:00Z,27.1117,-90.7640,100.6,24.5,11111222
Anadarko,ioos:station:wmo:42399:1,2021-11-03T21:39:00Z,27.1117,-90.7640,100.6,25.0,11111222
Anadarko,ioos:station:wmo:42399:1,2021-11-03T21:59:00Z,27.1117,-90.7640,100.6,25.1,11111222
Anadarko,ioos:station:wmo:42399:1,2021-11-03T22:19:00Z,27.1117,-90.7640,100.6,25.1,11111222
Anadarko,ioos:station:wmo:42399:1,2021-11-03T22:38:00Z,27.1117,-90.7640,100.6,24.9,11111222
Anadarko,ioos:station:wmo:42399:1,2021-11-03T22:58:00Z,27.1117,-90.7640,100.6,25.0,11111222
Anadarko,ioos:station:wmo:42399:1,2021-11-03T23:18:00Z,27.1117,-90.7640,100.6,24.2,11111222
Anadarko,ioos:station:wmo:42399:1,2021-11-03T23:38:00Z,27.1117,-90.7640,100.6,24.7,11111222
Anadarko,ioos:station:wmo:42399:1,2021-11-03T23:58:00Z,27.1117,-90.7640,100.6,24.8,11111222
Anadarko,ioos:station:wmo:42399:1,2021-11-04T00:18:00Z,27.1117,-90.7640,100.6,24.3,11111222
Anadarko,ioos:station:wmo:42399:1,2021-11-04T00:38:00Z,27.1117,-90.7640,100.6,24.3,11111222
Anadarko,ioos:station:wmo:42399:1,2021-11-04T00:58:00Z,27.1117,-90.7640,100.6,24.3,11111222
Anadarko,ioos:station:wmo:42399:1,2021-11-04T01:18:00Z,27.1117,-90.7640,100.6,24.3,11111222
Anadarko,ioos:station:wmo:42399:1,2021-11-04T01:38:00Z,27.1117,-90.7640,100.6,24.5,11111222
Anadarko,ioos:station:wmo:42399:1,2021-11-04T01:58:00Z,27.1117,-90.7640,100.6,24.2,11111222
Anadarko,ioos:station:wmo:42399:1,2021-11-04T02:18:00Z,27.1117,-90.7640,100.6,24.4,11111222
Anadarko,ioos:station:wmo:42399:1,2021-11-04T02:38:00Z,27.1117,-90.7640,100.6,24.6,11111222
Anadarko,ioos:station:wmo:42399:1,2021-11-04T02:58:00Z,27.1117,-90.7640,100.6,24.3,11111222
Anadarko,ioos:station:wmo:42399:1,2021-11-04T03:17:00Z,27.1117,-90.7640,100.6,24.4,11111222
Anadarko,ioos:station:wmo:42399:1,2021-11-04T03:36:00Z,27.1117,-90.7640,100.6,24.5,11111222
Anadarko,ioos:station:wmo:42399:1,2021-11-04T03:56:00Z,27.1117,-90.7640,100.6,24.4,11111222
Anadarko,ioos:station:wmo:42399:1,2021-11-04T04:16:00Z,27.1117,-90.7640,100.6,24.2,11111222
Anadarko,ioos:station:wmo:42399:1,2021-11-04T04:36:00Z,27.1117,-90.7640,100.6,24.3,11111222
Anadarko,ioos:station:wmo:42399:1,2021-11-04T04:55:00Z,27.1117,-90.7640,100.6,24.1,11111222
Anadarko,ioos:station:wmo:42399:1,2021-11-04T05:15:00Z,27.1117,-90.7640,100.6,24.1,11111222
Anadarko,ioos:station:wmo:42399:1,2021-11-04T05:35:00Z,27.1117,-90.7640,100.6,24.1,11111222
Anadarko,ioos:station:wmo:42399:1,2021-11-04T05:55:00Z,27.1117,-90.7640,100.6,24.1,11111222
Anadarko,ioos:station:wmo:42399:1,2021-11-04T06:15:00Z,27.1117,-90.7640,100.6,24.1,11111222
Anadarko,ioos:station:wmo:42399:1,2021-11-04T06:35:00Z,27.1117,-90.7640,100.6,23.9,11111222
Anadarko,ioos:station:wmo:42399:1,2021-11-04T06:55:00Z,27.1117,-90.7640,100.6,24.0,11111222
Anadarko,ioos:station:wmo:42399:1,2021-11-04T07:15:00Z,27.1117,-90.7640,100.6,24.1,11111222
Anadarko,ioos:station:wmo:42399:1,2021-11-04T07:35:00Z,27.1117,-90.7640,100.6,24.0,11111222
Anadarko,ioos:station:wmo:42399:1,2021-11-04T07:55:00Z,27.1117,-90.7640,100.6,24.1,11111222
Anadarko,ioos:station:wmo:42399:1,2021-11-04T08:15:00Z,27.1117,-90.7640,100.6,24.1,11111222
Anadarko,ioos:station:wmo:42399:1,2021-11-04T08:35:00Z,27.1117,-90.7640,100.6,24.1,11111222
Anadarko,ioos:station:wmo:42399:1,2021-11-04T08:55:00Z,27.1117,-90.7640,100.6,24.0,11111222
Anadarko,ioos:station:wmo:42399:1,2021-11-04T09:14:00Z,27.1117,-90.7640,100.6,24.0,11111222
Anadarko,ioos:station:wmo:42399:1,2021-11-04T09:33:00Z,27.1117,-90.7640,100.6,24.0,11111222
Anadarko,ioos:station:wmo:42399:1,2021-11-04T09:53:00Z,27.1117,-90.7640,100.6,24.0,11111222
Anadarko,ioos:station:wmo:42399:1,2021-11-04T10:13:00Z,27.1117,-90.7640,100.6,24.1,11111222
Anadarko,ioos:station:wmo:42399:1,2021-11-04T10:33:00Z,27.1117,-90.7640,100.6,24.0,11111222
Anadarko,ioos:station:wmo:42399:1,2021-11-04T10:53:00Z,27.1117,-90.7640,100.6,23.9,11111222
Anadarko,ioos:station:wmo:42399:1,2021-11-04T11:13:00Z,27.1117,-90.7640,100.6,23.8,11111222
Anadarko,ioos:station:wmo:42399:1,2021-11-04T11:33:00Z,27.1117,-90.7640,100.6,23.9,11111222
Anadarko,ioos:station:wmo:42399:1,2021-11-04T11:53:00Z,27.1117,-90.7640,100.6,23.9,11111222
Anadarko,ioos:station:wmo:42399:1,2021-11-04T12:13:00Z,27.1117,-90.7640,100.6,23.9,11111222
Anadarko,ioos:station:wmo:42399:1,2021-11-04T12:33:00Z,27.1117,-90.7640,100.6,23.6,11111222
Anadarko,ioos:station:wmo:42399:1,2021-11-04T12:53:00Z,27.1117,-90.7640,100.6,23.6,11111222